Back to catalog

BREEZE-M DEB

TANK

AliveHEO
NORAD 28477·DEBRIS·🇷🇺 Russia

Launched Oct 14, 2004 from Baikonur Cosmodrome

Loading…

Next Passes (next 24 hours)

TLE

FreshSource: Space-Track

Epoch: Sep 13, 2026, 05:55 UTC

1 28477U 04041C   26256.24665755  .00000028  00000-0  00000+0 0  9997
2 28477  47.7481  95.3527 7034094 133.1743 312.5178  2.23820875179002

Track BREEZE-M DEB in real time with AllMySat

Download on the App Store